METEOR 2-11 DEB, 40317

Orbit data source: Space-Track

METEOR 2-11 DEB, 40317 is space debris in LEO originally from a launch on Thu, 05 Jul 1984 UTC launched from the Plesetsk Missile And Space Complex (PKMTR). Debris objects in space refer to the collection of defunct objects orbiting the Earth. Examples of debris include non-operational satellites, rocket bodies, and fragments generated from explosions, collisions, or faulty payload assembly.

Loading next visibility...
Identifier
40317, 1984-072C
Orbit
LEO
Country
Flag of CISCIS
Related business
Manufacturer
Unknown
Mission
Spacecraft
Bus & Motor
Unknown
Mass
Unknown
Launch date (UTC)
1984-07-05 (42 years ago)
Launch vehicle
Unknown
Launch site
Plesetsk Missile And Space Complex (PKMTR)
Object type
Payload
Rocket body
Debris
Shape & HBR
Unknown shape, 0.1 m
Radar Cross Section
Small (<0.1 m²)

Expand to show TLE details & history
Last TLE update: 6 hours ago

TLE from 6 hours ago
0 METEOR 2-11 DEB
1 40317U 84072C   26130.45959687  .00001389  00000-0  94466-3 0  9994
2 40317  82.5189  36.7473 0006729 153.1092 207.0427 13.99373416580769
Epoch: 2026-05-10T11:01Z
TLE epoch observation values (Epoch: 2026-05-10T11:01:49.169Z)
Latitude
0.00001°
Longitude
3.03006°
Altitude
903.249 km
Speed
7.398 km/s
True Right ascension
02h 26m 59s
True Declination
0° 00' 00"
Sunlit
Object was in daylight at epoch
Visualization orbit readout
Latitude
Unknown
Longitude
Unknown
Altitude
Unknown
Speed
Unknown
Apparent Right ascension
Unknown
Apparent Declination
Unknown
Sunlit
N/A
Visualization observer readout
Local Sidereal Time
01:34:46
Azimuth
Unknown
Elevation
Unknown
Doppler factor
Unknown
Orbital elements
Apogee altitude
897.99 km
Perigee altitude
888.205 km
Semi-major axis
7,271.235 km
Eccentricity
0.00067
Inclination
82.5189°
RAAN
36.7473°
Arg. of periapsis
153.1092°
True anomaly
207.00767°
Mean anomaly
207.0427°
Eccentric anomaly
207.02518°
Mean motion
3.50051 °/min
Orbital period
102.84 mins
BSTAR
0.00094466
Loading maneuver chart data...
Computing Atmospheric mass density...
Loading historical data...
Loading historical data...
Loading historical data...
Loading historical data...
Loading historical data...
Loading historical data...
Loading historical data...

Documentation

Showing up to 5 results
|